Location: Göteborg
(57.7088°N, 11.9747°E)
Time: 02:27:39
(UTC+01:00)

ISS - Visible Passes

Search period start: 18 January 2021 00:00
Search period end: 28 January 2021 00:00
Orbit: 418 x 419 km, 51.6° (Epoch: 18 January)

Date Brightness Start Highest point End Pass type
(mag) Time Alt. Az. Time Alt. Az. Time Alt. Az.
21 Jan -0.7 19:32:10 10° SSW 19:32:15 10° SSW 19:32:15 10° SSW visible
22 Jan -1.6 18:44:55 10° SSW 18:46:33 16° SSE 18:46:33 16° SSE visible
23 Jan -1.4 17:57:53 10° S 17:59:35 13° SSE 18:00:48 11° SE visible
23 Jan -1.2 19:32:44 10° SW 19:33:44 16° SW 19:33:44 16° SW visible
24 Jan -2.1 18:45:13 10° SW 18:47:56 23° SSE 18:47:56 23° SSE visible
25 Jan -1.8 17:57:47 10° SSW 18:00:20 20° SSE 18:02:06 14° ESE visible
25 Jan -1.5 19:33:32 10° WSW 19:35:02 20° SW 19:35:02 20° SW visible
26 Jan -1.5 17:10:29 10° SSW 17:12:42 17° SSE 17:14:56 10° ESE visible
26 Jan -2.4 18:45:53 10° SW 18:48:50 28° S 18:49:11 28° SSE visible
27 Jan -2.1 17:58:15 10° SW 18:01:08 26° S 18:03:18 14° ESE visible
27 Jan -1.6 19:34:27 10° WSW 19:36:15 22° SW 19:36:15 22° SW visible
